• In Germany
  • List of Countries
  • For 7 days
  • Water Temperature
  • Satellite Maps
  • Weather Map
  • Weather Widgets
  • user-avatar
    Login

    Hourly Weather Hirnyy

    Today, 15 July, Sunday

    Time Temperature Precipitation Wind Pressure Humidity
    00:00 +26°C° 0 mm 3 mps 751 mmHg 58%
    01:00 +26°C° 0 mm 2 mps 751 mmHg 61%
    02:00 +25°C° 0 mm 2 mps 751 mmHg 64%
    03:00 +25°C° 0 mm 1 mps 751 mmHg 65%
    04:00 +25°C° 0.2 mm 1 mps 751 mmHg 66%
    05:00 +25°C° 0.2 mm 1 mps 751 mmHg 66%
    06:00 +26°C° 0.2 mm 1 mps 750 mmHg 67%
    07:00 +27°C° 0 mm 1 mps 750 mmHg 61%
    08:00 +29°C° 0 mm 1 mps 750 mmHg 55%
    09:00 +31°C° 0 mm 1 mps 751 mmHg 50%
    10:00 +32°C° 0 mm 2 mps 750 mmHg 45%
    11:00 +34°C° 0 mm 2 mps 750 mmHg 40%
    12:00 +35°C° 0 mm 2 mps 750 mmHg 35%
    13:00 +35°C° 0 mm 2 mps 750 mmHg 35%
    14:00 +35°C° 0 mm 3 mps 750 mmHg 35%
    15:00 +35°C° 0 mm 2 mps 750 mmHg 36%
    16:00 +34°C° 0 mm 2 mps 750 mmHg 38%
    17:00 +34°C° 0 mm 2 mps 750 mmHg 40%
    18:00 +32°C° 0 mm 2 mps 750 mmHg 42%
    19:00 +30°C° 0.4 mm 3 mps 750 mmHg 49%
    20:00 +29°C° 0.4 mm 4 mps 751 mmHg 57%
    21:00 +27°C° 0.4 mm 4 mps 751 mmHg 65%
    22:00 +26°C° 1.1 mm 4 mps 751 mmHg 70%
    23:00 +25°C° 1.1 mm 4 mps 751 mmHg 76%

    Tomorrow, 16 July, Monday

    Time Temperature Precipitation Wind Pressure Humidity
    00:00 +24°C° 1.1 mm 3 mps 751 mmHg 82%
    01:00 +24°C° 1.1 mm 3 mps 751 mmHg 82%
    02:00 +24°C° 1.1 mm 3 mps 751 mmHg 83%
    03:00 +24°C° 1.1 mm 3 mps 751 mmHg 84%
    04:00 +24°C° 0.9 mm 3 mps 751 mmHg 84%
    05:00 +22°C° 0.9 mm 3 mps 751 mmHg 84%
    06:00 +22°C° 0.9 mm 3 mps 751 mmHg 85%
    07:00 +23°C° 0.8 mm 4 mps 751 mmHg 82%
    08:00 +23°C° 0.8 mm 4 mps 751 mmHg 80%
    09:00 +23°C° 0.8 mm 4 mps 751 mmHg 78%
    10:00 +25°C° 0.1 mm 4 mps 751 mmHg 71%
    11:00 +26°C° 0.1 mm 4 mps 751 mmHg 64%
    12:00 +28°C° 0.1 mm 4 mps 751 mmHg 58%
    13:00 +28°C° 0 mm 4 mps 751 mmHg 53%
    14:00 +29°C° 0 mm 4 mps 751 mmHg 49%
    15:00 +30°C° 0 mm 5 mps 751 mmHg 45%
    16:00 +30°C° 0 mm 4 mps 751 mmHg 46%
    17:00 +30°C° 0 mm 4 mps 751 mmHg 47%
    18:00 +30°C° 0 mm 4 mps 751 mmHg 48%
    19:00 +28°C° 0 mm 4 mps 751 mmHg 52%
    20:00 +27°C° 0 mm 3 mps 751 mmHg 56%
    21:00 +26°C° 0 mm 3 mps 751 mmHg 60%
    22:00 +25°C° 0 mm 3 mps 751 mmHg 63%
    23:00 +24°C° 0 mm 3 mps 751 mmHg 65%

    Day after tomorrow, 17 July, Tuesday

    Time Temperature Precipitation Wind Pressure Humidity
    00:00 +22°C° 0 mm 4 mps 751 mmHg 67%
    01:00 +22°C° 0 mm 4 mps 751 mmHg 69%
    02:00 +22°C° 0 mm 4 mps 751 mmHg 70%
    03:00 +21°C° 0 mm 4 mps 751 mmHg 71%
    04:00 +21°C° 0 mm 4 mps 751 mmHg 72%
    05:00 +22°C° 0 mm 5 mps 751 mmHg 73%
    06:00 +22°C° 0 mm 5 mps 751 mmHg 74%
    07:00 +25°C° 0 mm 5 mps 751 mmHg 67%
    08:00 +27°C° 0 mm 6 mps 751 mmHg 59%
    09:00 +29°C° 0 mm 6 mps 751 mmHg 51%
    10:00 +30°C° 0 mm 6 mps 751 mmHg 48%
    11:00 +32°C° 0 mm 6 mps 751 mmHg 44%
    12:00 +33°C° 0 mm 7 mps 751 mmHg 41%
    13:00 +33°C° 0 mm 7 mps 751 mmHg 40%
    14:00 +33°C° 0 mm 7 mps 751 mmHg 40%
    15:00 +33°C° 0 mm 7 mps 751 mmHg 39%
    16:00 +32°C° 0 mm 6 mps 751 mmHg 40%
    17:00 +32°C° 0 mm 6 mps 751 mmHg 40%
    18:00 +30°C° 0 mm 5 mps 751 mmHg 41%
    19:00 +29°C° 0 mm 4 mps 751 mmHg 45%
    20:00 +27°C° 0 mm 3 mps 752 mmHg 50%
    21:00 +25°C° 0 mm 3 mps 752 mmHg 54%
    22:00 +25°C° 0.2 mm 3 mps 752 mmHg 58%
    23:00 +24°C° 0.2 mm 3 mps 752 mmHg 62%

    18 July, Wednesday

    Time Temperature Precipitation Wind Pressure Humidity
    00:00 +22°C° 0.2 mm 3 mps 752 mmHg 66%
    01:00 +22°C° 0.2 mm 3 mps 752 mmHg 72%
    02:00 +22°C° 0.2 mm 3 mps 752 mmHg 77%
    03:00 +21°C° 0.2 mm 3 mps 752 mmHg 83%
    04:00 +21°C° 0 mm 3 mps 752 mmHg 83%
    05:00 +22°C° 0 mm 4 mps 752 mmHg 84%
    06:00 +22°C° 0 mm 4 mps 752 mmHg 84%
    07:00 +25°C° 0.2 mm 4 mps 752 mmHg 76%
    08:00 +26°C° 0.2 mm 5 mps 753 mmHg 69%
    09:00 +27°C° 0.2 mm 5 mps 753 mmHg 62%
    10:00 +29°C° 0.1 mm 5 mps 753 mmHg 56%
    11:00 +30°C° 0.1 mm 5 mps 753 mmHg 51%
    12:00 +32°C° 0.1 mm 5 mps 753 mmHg 45%
    13:00 +33°C° 0.1 mm 5 mps 753 mmHg 43%
    14:00 +33°C° 0.1 mm 5 mps 752 mmHg 41%
    15:00 +34°C° 0.1 mm 5 mps 752 mmHg 39%
    16:00 +33°C° 0 mm 5 mps 752 mmHg 40%
    17:00 +33°C° 0 mm 4 mps 752 mmHg 42%
    18:00 +31°C° 0 mm 3 mps 752 mmHg 44%
    19:00 +30°C° 0 mm 3 mps 753 mmHg 47%
    20:00 +29°C° 0 mm 2 mps 753 mmHg 50%
    21:00 +28°C° 0 mm 2 mps 753 mmHg 53%
    22:00 +27°C° 0.1 mm 1 mps 753 mmHg 56%
    23:00 +26°C° 0.1 mm 1 mps 753 mmHg 59%

    19 July, Thursday

    Time Temperature Precipitation Wind Pressure Humidity
    00:00 +25°C° 0.1 mm 1 mps 753 mmHg 63%
    01:00 +25°C° 0 mm 1 mps 753 mmHg 65%
    02:00 +22°C° 0 mm 0 mps 753 mmHg 67%
    03:00 +22°C° 0 mm 0 mps 753 mmHg 68%
    04:00 +22°C° 0.1 mm 0 mps 753 mmHg 68%
    05:00 +25°C° 0.1 mm 1 mps 753 mmHg 68%
    06:00 +25°C° 0.1 mm 1 mps 753 mmHg 68%
    07:00 +27°C° 0 mm 1 mps 753 mmHg 62%
    08:00 +29°C° 0 mm 2 mps 753 mmHg 56%
    09:00 +30°C° 0 mm 2 mps 754 mmHg 49%
    10:00 +32°C° 0 mm 2 mps 753 mmHg 45%
    11:00 +34°C° 0 mm 2 mps 753 mmHg 41%
    12:00 +36°C° 0 mm 2 mps 753 mmHg 37%
    13:00 +35°C° 0 mm 1 mps 753 mmHg 36%
    14:00 +35°C° 0 mm 1 mps 753 mmHg 35%
    15:00 +35°C° 0 mm 1 mps 752 mmHg 34%
    16:00 +35°C° 0 mm 1 mps 752 mmHg 35%
    17:00 +35°C° 0 mm 1 mps 752 mmHg 35%
    18:00 +35°C° 0 mm 1 mps 752 mmHg 36%
    19:00 +33°C° 0 mm 1 mps 752 mmHg 40%
    20:00 +31°C° 0 mm 2 mps 753 mmHg 45%
    21:00 +29°C° 0 mm 2 mps 753 mmHg 50%
    22:00 +29°C° 0.1 mm 2 mps 753 mmHg 53%
    23:00 +28°C° 0.1 mm 2 mps 753 mmHg 56%

    20 July, Friday

    Time Temperature Precipitation Wind Pressure Humidity
    00:00 +27°C° 0.1 mm 2 mps 753 mmHg 59%
    01:00 +27°C° 0.2 mm 2 mps 752 mmHg 62%
    02:00 +26°C° 0.2 mm 2 mps 752 mmHg 65%
    03:00 +25°C° 0.2 mm 2 mps 752 mmHg 68%
    04:00 +25°C° 0.2 mm 2 mps 753 mmHg 69%
    05:00 +25°C° 0.2 mm 2 mps 753 mmHg 69%
    06:00 +25°C° 0.2 mm 2 mps 753 mmHg 70%
    07:00 +27°C° 0 mm 2 mps 753 mmHg 63%
    08:00 +29°C° 0 mm 1 mps 753 mmHg 56%
    09:00 +31°C° 0 mm 1 mps 753 mmHg 49%
    10:00 +34°C° 0 mm 2 mps 753 mmHg 44%
    11:00 +35°C° 0 mm 2 mps 753 mmHg 39%
    12:00 +36°C° 0 mm 2 mps 753 mmHg 34%
    13:00 +37°C° 0 mm 2 mps 752 mmHg 32%
    14:00 +37°C° 0 mm 3 mps 752 mmHg 31%
    15:00 +38°C° 0 mm 3 mps 752 mmHg 29%
    16:00 +38°C° 0 mm 3 mps 752 mmHg 29%
    17:00 +37°C° 0 mm 3 mps 752 mmHg 30%
    18:00 +37°C° 0 mm 3 mps 752 mmHg 31%
    19:00 +34°C° 0.4 mm 3 mps 752 mmHg 38%
    20:00 +31°C° 0.4 mm 3 mps 753 mmHg 45%
    21:00 +29°C° 0.4 mm 3 mps 753 mmHg 52%
    22:00 +28°C° 0.3 mm 2 mps 753 mmHg 56%
    23:00 +27°C° 0.3 mm 2 mps 753 mmHg 59%
    Show more